Location: Isle of Man Observatory
(54.1776°N, 4.6264°W)
Time: 15:17:09
(UTC+02:00)

ARIANE 6 FM1 Upper Stage - Pass Details

Date: 18 April 2026
Orbit: 526 x 601 km, 62.0° (Epoch: 19 May)

Event Time Altitude Azimuth Distance (km) Brightness Sun altitude
Rises 02:50:59 0° 307° (NW) 2,681 6.5 -24.7°
Reaches altitude 10° 02:53:12 10° 306° (NW) 1,782 5.5 -24.6°
Enters shadow 02:55:33 34° 301° (WNW) 887 3.8 -24.6°
